Home   Weather   Le Mans   Past weeks

Flag for France Past Weather in Le Mans, Pays de la Loire, France — Yesterday and Last 2 Weeks

Now
50 °F

Broken clouds.


Feels Like: 48 °F
Forecast: 35 / 58 °F
Wind: 6 mph from North

Location: Le Mans Airport

Current Time: Apr 27, 2017 at 1:15:11 pm

Latest Report: Apr 27, 2017 at 12:30 pm


Visibility: N/A

Pressure: 30.12 "Hg

Humidity: 50%

Dew Point: 32 °F

Location of Le MansLocation

Past Weather in Le Mans — Graph

°F

Le Mans Temperature Yesterday

Maximum temperature yesterday: 54 °F (at 1:00 pm)
Minimum temperature yesterday: 30 °F (at 7:00 am)
Average temperature yesterday: 43 °F

High & Low Weather Summary for the Past Weeks

 TemperatureHumidityPressure
High66 °F (Apr 12, 3:30 pm)100% (Apr 13, 8:30 am)30.60 "Hg (Apr 13, 8:30 am)
Low30 °F (Apr 26, 7:00 am)18% (Apr 21, 4:00 pm)29.86 "Hg (Apr 25, 6:30 am)
Average50 °F60%30.22 "Hg
* Reported Apr 12 12:00 pm — Apr 27 12:00 pm, Le Mans, Weather by CustomWeather, © 2017

Note: Actual official high and low records may vary slightly from our data, if they occured in-between our weather recording intervals... More about our weather records

Advertising

Le Mans Weather History for the Previous 24 Hours

Scroll right to see more
 ConditionsComfort  
Time TempWeatherWind HumidityBarometerVisibility
12:00 pm
Thu, Apr 27
48 °FPartly sunny.6 mph58%30.12 "HgN/A
11:30 am48 °FMostly cloudy.9 mph58%30.12 "HgN/A
11:00 am48 °FBroken clouds.8 mph62%30.12 "HgN/A
10:30 am46 °FPassing clouds.7 mph66%30.12 "HgN/A
10:00 am45 °FSunny.9 mph71%30.12 "Hg10 mi
9:30 am43 °FPassing clouds.8 mph71%30.12 "HgN/A
9:00 am41 °FPassing clouds.6 mph76%30.12 "HgN/A
8:30 am39 °FPassing clouds.5 mph81%30.12 "HgN/A
8:00 am34 °FSunny.No wind93%30.12 "Hg10 mi
7:30 am32 °FSunny.No wind93%30.09 "Hg10 mi
7:00 am30 °FSunny.No wind93%30.09 "Hg10 mi
6:30 am30 °FClear.1 mph93%30.09 "Hg10 mi
5:30 am30 °FClear.No wind93%30.09 "Hg10 mi
4:30 am30 °FClear.No wind93%30.09 "Hg10 mi
3:30 am34 °FClear.No wind93%30.09 "Hg10 mi
3:00 am34 °FClear.No wind93%30.09 "Hg10 mi
2:30 am34 °FClear.No wind93%30.09 "Hg10 mi
2:00 am39 °FClear.3 mph81%30.09 "Hg10 mi
1:30 am41 °FClear.3 mph76%30.09 "Hg10 mi
12:30 am43 °FClear.3 mph71%30.09 "Hg10 mi
11:30 pm
Wed, Apr 26
43 °FPassing clouds.2 mph71%30.07 "HgN/A
11:00 pm43 °FPassing clouds.2 mph76%30.07 "HgN/A
10:30 pm43 °FPassing clouds.5 mph76%30.07 "HgN/A
10:00 pm41 °FPassing clouds.2 mph81%30.07 "HgN/A
9:30 pm43 °FClear.1 mph76%30.04 "Hg10 mi
9:00 pm43 °FSunny.2 mph71%30.04 "Hg10 mi
8:30 pm43 °FQuite cool.3 mph71%30.04 "HgN/A
8:00 pm45 °FScattered clouds.13 mph66%30.04 "HgN/A
7:30 pm48 °FScattered clouds.15 mph54%30.01 "HgN/A
7:00 pm50 °FPartly sunny.12 mph54%30.01 "HgN/A
6:30 pm50 °FOvercast.10 mph50%30.01 "HgN/A
6:00 pm48 °FThundershowers. Broken clouds.3 mph66%30.01 "HgN/A
5:30 pm46 °FLight rain. Broken clouds.15 mph66%30.01 "HgN/A
5:00 pm46 °FPartly sunny.5 mph71%30.01 "HgN/A
4:30 pm46 °FPartly sunny.3 mph66%30.01 "HgN/A
4:00 pm46 °FCool.6 mph62%30.01 "HgN/A
3:30 pm45 °FPartly sunny.3 mph66%30.01 "HgN/A
3:00 pm52 °FMore clouds than sun.9 mph44%29.98 "HgN/A
2:30 pm52 °FScattered clouds.8 mph44%29.98 "HgN/A
2:00 pm48 °FPassing clouds.16 mph50%29.98 "HgN/A
1:30 pm50 °FCool.10 mph40%29.98 "HgN/A
1:00 pm54 °FPartly sunny.3 mph41%29.98 "HgN/A
Weather by CustomWeather, © 2017

See weather overviewHow to use our weather pages